Regional Weather Roundup
Issued by NWS

Home | Current Version | Previous Version | Graphics & Text | Print | Product List | Glossary On
Versions: 1 2 3 4 5 6 7 8 9 10 11 12 13 14 15 16 17 18 19 20 21 22 23 24 25 26 27 28
000
ASUS45 KBOU 191306
RWRCO

WEATHER ROUNDUP FOR COLORADO
NATIONAL WEATHER SERVICE DENVER/BOULDER CO
700 AM MDT SAT APR 19 2014

NOTE: "FAIR" INDICATES FEW OR NO CLOUDS BELOW 12000 FEET WITH NO
SIGNIFICANT WEATHER AND/OR OBSTRUCTIONS TO VISIBILITY.

COZ001>005-013-030-031-191400-
...NORTHWEST COLORADO...

CITY           SKY/WX    TMP DP  RH WIND       PRES   REMARKS
CRAIG          CLOUDY    37  32  82 SE3       30.08R
HAYDEN         PTCLDY    39  30  70 E9        30.11R
MEEKER         CLOUDY    46  35  65 NE6       30.08R
MOUNT WERNER   CLOUDY    37  23  56 W6        30.23R
STEAMBOAT SPGS CLOUDY    38  29  69 CALM      30.10R
WALDEN         CLOUDY    36  27  69 SE5       30.13R
$$

COZ006>008-011-191400-
...WEST CENTRAL VALLEYS...

CITY           SKY/WX    TMP DP  RH WIND       PRES   REMARKS
GRAND JUNCTION LGT RAIN  53  41  63 N10       30.06R
MONTROSE       CLOUDY    51  36  56 CALM      30.10R
EAGLE          CLOUDY    45  36  70 CALM      30.11S
RIFLE          CLOUDY    48  36  63 E3        30.07R
DELTA          CLOUDY    57  39  50 W10       30.08R
NUCLA            N/A     46  43  87 E6        30.16R
$$

COZ017>023-064>068-191400-
...SOUTHWEST COLORADO...

CITY           SKY/WX    TMP DP  RH WIND       PRES   REMARKS
DURANGO        MOCLDY    43  43 100 CALM      30.15R
CORTEZ         MOCLDY    45  44  97 CALM      30.12S
PAGOSA SPRINGS DRIZZLE   42  42  99 CALM      30.19R
TELLURIDE      DRIZZLE   37  36  93 CALM      30.19R
WOLF CREEK PAS SNOW      28  28 100 SW14G22   30.27S VSB<1/4 WCI  17
$$

COZ009-010-012-014-032>034-037-058>063-191400-
...CENTRAL COLORADO...

CITY           SKY/WX    TMP DP  RH WIND       PRES   REMARKS
ASPEN          CLOUDY    39  30  70 S6        30.14R
BUENA VISTA    CLOUDY    36  30  78 S3        30.15R
COPPER MTN     MOCLDY    34  27  75 W13       30.27S WCI  25
BERTHOUD PASS  CLOUDY    27  16  63 NW13      30.29R WCI  16
COTTONWOOD PAS CLOUDY    43  27  52 SE8       30.20R
GUNNISON       MOCLDY    39  27  60 N5        30.18R
KREMMLING      MOCLDY    36  28  75 N3        30.14R
LEADVILLE      CLOUDY    31  23  72 N6        30.18S WCI  25
MONARCH PASS   FLURRIES  28  27  93 SW7       30.37R WCI  21
SALIDA         CLOUDY    46  32  58 S5        30.21R
SUNLIGHT       CLOUDY    34  30  86 CALM      30.25R
WILKERSON PASS CLOUDY    34  23  64 SW5       30.28R WCI  30
$$

COZ069>075-191400-
...SAN LUIS VALLEY/SANGRE DE CRISTO MOUNTAINS...

CITY           SKY/WX    TMP DP  RH WIND       PRES   REMARKS
ALAMOSA        PTCLDY    43  35  73 S8        30.14R
LA VETA PASS   MOCLDY    34  32  93 W8G20     30.23R WCI  27
SAGUACHE       CLOUDY    45  32  61 E8        30.17R
$$

COZ035-036-038>040-191400-
...NORTHERN COLORADO FRONT RANGE...

CITY           SKY/WX    TMP DP  RH WIND       PRES   REMARKS
DENVER INTL AP CLOUDY    50  32  50 S10       29.98R
DMNS CITY PARK   N/A     54  30  40 S3        29.99R
AURORA         MOCLDY    52  32  46 SE6       30.00R
FRONT RANGE AP NOT AVBL
ERIE MUNI ARPT CLOUDY    52  32  47 CALM      29.97R
BOULDER MUN AP CLOUDY    52  32  46 E3        29.97R
CENTENNIAL     CLOUDY    50  31  48 SE6       30.01R
BROOMFIELD     MOCLDY    55  28  35 VRB3      29.99S
FORT COLLINS   CLOUDY    45  37  76 S7        29.99R
LONGMONT       CLOUDY    49  38  64 NW5       29.99R
$$

COZ041-046-047-076>085-087-088-191400-
...PIKES PEAK/PALMER DIVIDE AND SOUTHERN FOOTHILLS...

CITY           SKY/WX    TMP DP  RH WIND       PRES   REMARKS
COLO. SPRINGS  CLOUDY    51  29  42 N6        30.01R
A. F. ACADEMY  CLOUDY    45  31  58 N5        30.02S
ELLICOTT       NOT AVBL
FALCON         MOCLDY    51  26  36 NW8       30.04S
FORT CARSON    MOCLDY    49  31  48 CALM      29.99R
LIMON          CLOUDY    49  34  56 NW6       29.99R
MONUMENT HILL  CLOUDY    43  30  61 NE7       30.05R
TRINIDAD       MOCLDY    53  34  48 N8        30.03R
$$

COZ042>045-048>051-090-091-191400-
...NORTHEAST COLORADO...

CITY           SKY/WX    TMP DP  RH WIND       PRES   REMARKS
GREELEY ARPT   CLOUDY    45  32  61 CALM      29.98R
AKRON          CLOUDY    54  36  50 N14       29.95R
BURLINGTON     PTCLDY    48  38  68 W10       29.93R
WRAY           CLOUDY    48  43  81 W7        29.91R
STERLING       CLOUDY    59  39  47 N15G21    29.95R
HOLYOKE        CLOUDY    46  41  81 N9        29.93R
FORT MORGAN    CLOUDY    55  33  44 N18       29.96R
$$

COZ086-089-092>099-191400-
...SOUTHEAST COLORADO...

CITY           SKY/WX    TMP DP  RH WIND       PRES   REMARKS
PUEBLO         CLOUDY    49  39  68 VRB3      29.96R
LA JUNTA       CLOUDY    59  36  42 W15       29.93R
LAMAR          MOCLDY    54  42  64 SW5       29.91R
SPRINGFIELD      N/A     53  44  71 SW10      29.97S
$$



USA.gov is the U.S. government's official web portal to all federal, state and local government web resources and services.